Location: Zagreb
(45.8000°N, 16.0000°E)
Time: 01:52:42
(UTC+02:00)

Transit 2A Rocket - Pass Details

Date: 28 January 2022
Orbit: 592 x 909 km, 66.7° (Epoch: 26 May)

Event Time Altitude Azimuth Distance (km) Brightness Sun altitude
Rises 17:09:24 0° 184° (S) 3,465 8.8 -3.0°
Reaches altitude 10° 17:12:01 10° 176° (S) 2,556 8.0 -3.4°
Maximum altitude 17:17:27 37° 112° (ESE) 1,387 6.0 -4.3°
Drops below altitude 10° 17:22:57 10° 47° (NE) 2,595 7.2 -5.2°
Enters shadow 17:24:59 - 41° (NE) 3,296 7.7 -5.5°
Sets 17:25:37 0° 40° (NE) 3,524 - -5.6°
